Simultaneous Nadir Overpasses (SNOs) Predictions

Prediction of SNOs between AQUA and NOAA-19 Satellite Orbit:

Table of predicted SNOs for the next 14.0 days since TLE Epoch: 5/2/2013
Index Date (AQUA) Time (AQUA) Lat,Lon (AQUA) SZA (AQUA ) Date (NOAA-19) Time (NOAA-19) Lat,Lon (NOAA-19) SZA (NOAA-19 ) Distance(km) Time Diff (sec)
1 05/03/2013 20:39:18 47.23,-114.72 33.83 05/03/2013 20:38:58 47.15,-115.03 33.63 25.42 20
2 05/03/2013 21:28:22 -46.07, 53.37 147.08 05/03/2013 21:29:33 -45.93, 52.73 147.32 52.14 71
3 05/06/2013 01:23:24 46.75, 174.41 32.88 05/06/2013 01:23:12 46.69, 174.08 32.70 25.85 12
4 05/08/2013 05:34:04 -73.00, 148.48 96.43 05/08/2013 05:32:51 -72.58, 150.97 96.68 93.83 73
5 05/08/2013 06:07:30 46.29, 103.52 31.98 05/08/2013 06:07:26 46.24, 103.18 31.81 26.59 4
6 05/10/201
